Date String (YYYY-MM-DD hh:mm:ss) UTC,Instrument flags,Ambient pressure (hPa),Sample flow (lpm),Bypass flow (lpm),Sample temperature (°C),Ambient temperature (°C),ASC tube jacket temperature (°C),LED temperature (°C),Box temperature (°C),Sample RH (%),Span deviation,Mass concentration (μg/m³),Mass concentration (μg/m³),Mass concentration (μg/m³)
DateTimeUTC,F1_M11,P_M11,Q1_M11,Q2_M11,T1_M11,T2_M11,T3_M11,T4_M11,T5_M11,U1_M11,ZSPAN_M11,X0_M11,X2_M11,X1_M11
2023-03-07 23:00:00,,0825.1,5.01,0.00,22.4,21.1,00.0,31.1,24.2,12.9,-001.1,0010.20,0007.40,0006.97
2023-03-07 23:01:00,,0825.2,5.00,0.00,22.4,21.0,00.0,31.1,24.2,12.9,-000.7,0010.20,0007.37,0006.95
2023-03-07 23:02:00,,0825.2,5.00,0.00,22.4,21.0,00.0,31.1,24.1,13.0,-000.7,0010.18,0007.34,0006.93
2023-03-07 23:03:00,,0825.2,4.99,0.00,22.4,20.9,00.0,31.1,24.1,12.9,-000.8,0010.25,0007.31,0006.92
2023-03-07 23:04:00,,0825.2,5.00,0.00,22.4,20.9,00.0,31.1,24.1,12.9,-000.8,0010.21,0007.27,0006.90
2023-03-07 23:05:00,,0825.2,5.01,0.00,22.4,20.9,00.0,31.1,24.1,12.9,-001.0,0010.24,0007.26,0006.88
2023-03-07 23:06:00,,0825.2,5.01,0.00,22.4,20.8,00.0,31.1,24.1,12.8,-000.6,0010.32,0007.27,0006.88
2023-03-07 23:07:00,,0825.2,5.00,0.00,22.4,20.8,00.0,31.1,24.1,12.9,-000.1,0010.34,0007.27,0006.87
2023-03-07 23:08:00,,0825.2,5.00,0.00,22.4,20.8,00.0,31.1,24.1,12.9,0000.1,0010.08,0007.26,0006.86
2023-03-07 23:09:00,,0825.2,5.01,0.00,22.4,20.8,00.0,31.1,24.1,13.0,0000.5,0009.96,0007.24,0006.86
2023-03-07 23:10:00,,0825.2,5.00,0.00,22.4,20.7,00.0,31.1,24.0,13.1,0000.4,0009.92,0007.21,0006.84
2023-03-07 23:11:00,,0825.3,5.01,0.00,22.3,20.7,00.0,31.1,24.1,13.1,0000.2,0010.03,0007.23,0006.84
2023-03-07 23:12:00,,0825.3,5.00,0.00,22.3,20.7,00.0,31.1,24.1,13.0,-000.5,0010.19,0007.29,0006.86
2023-03-07 23:13:00,,0825.2,5.00,0.00,22.3,20.7,00.0,31.1,24.0,13.0,-000.8,0010.25,0007.32,0006.88
2023-03-07 23:14:00,,0825.2,5.00,0.00,22.3,20.7,00.0,31.1,24.0,13.0,-001.1,0010.16,0007.32,0006.90
2023-03-07 23:15:00,,0825.2,5.00,0.00,22.3,20.7,00.0,31.1,24.0,13.0,-001.4,0010.16,0007.34,0006.91
2023-03-07 23:16:00,,0825.2,5.01,0.00,22.3,20.7,00.0,31.1,24.0,13.0,-001.7,0010.12,0007.36,0006.93
2023-03-07 23:17:00,,0825.2,4.99,0.00,22.3,20.6,00.0,31.1,24.0,13.0,-001.6,0009.94,0007.34,0006.94
2023-03-07 23:18:00,,0825.2,5.01,0.00,22.3,20.6,00.0,31.1,24.0,13.0,-001.8,0009.89,0007.34,0006.95
2023-03-07 23:19:00,,0825.3,5.01,0.00,22.3,20.6,00.0,31.0,24.0,13.1,-001.6,0009.98,0007.38,0006.96
2023-03-07 23:20:00,,0825.3,4.99,0.00,22.3,20.6,00.0,31.0,24.0,13.1,-001.5,0010.15,0007.42,0006.97
2023-03-07 23:21:00,,0825.3,4.99,0.00,22.2,20.6,00.0,31.0,24.0,13.0,-001.4,0010.23,0007.42,0006.95
2023-03-07 23:22:00,,0825.3,5.00,0.00,22.2,20.6,00.0,31.0,24.0,13.1,-001.3,0010.25,0007.39,0006.92
2023-03-07 23:23:00,,0825.3,5.01,0.00,22.2,20.6,00.0,31.0,23.9,13.2,-000.7,0010.46,0007.36,0006.90
2023-03-07 23:24:00,,0825.4,5.00,0.00,22.2,20.6,00.0,31.0,23.9,13.1,-000.1,0010.40,0007.32,0006.85
2023-03-07 23:25:00,,0825.3,5.00,0.00,22.2,20.7,00.0,31.0,23.9,12.9,0000.6,0010.34,0007.29,0006.82
2023-03-07 23:26:00,,0825.3,5.02,0.00,22.3,21.6,00.0,31.0,24.2,12.9,0000.8,0010.41,0007.29,0006.78
2023-03-07 23:27:00,,0825.3,5.00,0.00,22.4,22.7,00.0,31.0,24.4,12.9,0000.8,0010.43,0007.27,0006.74
2023-03-07 23:28:00,,0825.3,4.96,0.00,22.5,23.1,00.0,31.0,24.5,12.7,0000.8,0010.48,0007.25,0006.70
2023-03-07 23:29:00,,0825.3,4.99,0.00,22.6,22.7,00.0,31.1,24.5,12.7,0001.3,0010.41,0007.21,0006.67
2023-03-07 23:30:00,,0825.3,4.98,0.00,22.6,22.3,00.0,31.1,24.4,12.7,0000.8,0010.30,0007.13,0006.64
2023-03-07 23:31:00,,0825.3,4.99,0.00,22.6,22.0,00.0,31.1,24.4,12.8,0000.9,0010.90,0007.08,0006.60
2023-03-07 23:32:00,,0825.4,4.98,0.00,22.6,21.8,00.0,31.2,24.3,12.8,0000.6,0011.29,0007.05,0006.58
2023-03-07 23:33:00,,0825.4,4.99,0.00,22.6,21.6,00.0,31.2,24.3,12.8,0000.3,0011.13,0007.03,0006.57
2023-03-07 23:34:00,,0825.5,5.01,0.00,22.6,21.4,00.0,31.2,24.3,12.8,0000.0,0010.83,0007.03,0006.58
2023-03-07 23:35:00,,0825.4,5.01,0.00,22.6,21.3,00.0,31.2,24.3,12.9,0000.1,0010.79,0007.05,0006.61
2023-03-07 23:36:00,,0825.5,5.00,0.00,22.6,21.3,00.0,31.2,24.3,13.0,-000.3,0010.79,0007.08,0006.66
2023-03-07 23:37:00,,0825.4,5.00,0.00,22.5,21.2,00.0,31.2,24.3,13.0,-000.1,0010.64,0007.05,0006.69
2023-03-07 23:38:00,,0825.4,5.01,0.00,22.5,21.1,00.0,31.2,24.3,13.0,-000.0,0010.64,0007.08,0006.73
2023-03-07 23:39:00,,0825.4,4.99,0.00,22.5,21.0,00.0,31.2,24.2,13.0,-000.3,0010.66,0007.12,0006.78
2023-03-07 23:40:00,,0825.4,5.00,0.00,22.5,21.0,00.0,31.2,24.2,13.0,-000.6,0010.70,0007.14,0006.80
2023-03-07 23:41:00,,0825.4,5.01,0.00,22.5,20.9,00.0,31.2,24.2,12.9,-000.2,0010.73,0007.17,0006.83
2023-03-07 23:42:00,,0825.4,4.99,0.00,22.5,20.9,00.0,31.2,24.2,12.8,-000.4,0009.99,0007.20,0006.86
2023-03-07 23:43:00,,0825.5,4.99,0.00,22.5,20.9,00.0,31.2,24.2,12.9,-000.4,0009.68,0007.26,0006.91
2023-03-07 23:44:00,,0825.5,4.99,0.00,22.5,20.9,00.0,31.2,24.2,13.0,0000.1,0009.83,0007.29,0006.93
2023-03-07 23:45:00,,0825.4,5.01,0.00,22.4,20.8,00.0,31.2,24.2,12.9,-000.3,0010.48,0007.27,0006.92
2023-03-07 23:46:00,,0825.5,4.98,0.00,22.4,20.8,00.0,31.2,24.1,12.9,-000.2,0010.50,0007.21,0006.88
2023-03-07 23:47:00,,0825.5,5.01,0.00,22.4,20.8,00.0,31.2,24.1,13.0,-000.5,0010.52,0007.18,0006.84
2023-03-07 23:48:00,,0825.6,5.01,0.00,22.4,20.8,00.0,31.2,24.1,13.1,-000.9,0010.57,0007.18,0006.82
2023-03-07 23:49:00,,0825.6,5.00,0.00,22.4,20.7,00.0,31.2,24.1,13.2,-000.6,0010.49,0007.14,0006.80
2023-03-07 23:50:00,,0825.5,5.00,0.00,22.4,20.7,00.0,31.2,24.1,13.1,-000.4,0010.39,0007.10,0006.79
2023-03-07 23:51:00,,0825.6,5.00,0.00,22.4,20.7,00.0,31.2,24.1,13.3,-000.4,0010.37,0007.08,0006.78
2023-03-07 23:52:00,,0825.6,5.00,0.00,22.4,20.7,00.0,31.1,24.1,13.3,-000.7,0010.48,0007.09,0006.79
2023-03-07 23:53:00,,0825.6,5.01,0.00,22.4,20.7,00.0,31.1,24.1,13.2,-000.6,0010.41,0007.11,0006.81
2023-03-07 23:54:00,,0825.6,5.00,0.00,22.3,20.6,00.0,31.1,24.0,13.2,-000.3,0010.31,0007.09,0006.82
2023-03-07 23:55:00,,0825.5,5.00,0.00,22.3,20.6,00.0,31.1,24.1,13.1,-000.4,0010.28,0007.13,0006.86
2023-03-07 23:56:00,,0825.5,5.00,0.00,22.3,20.6,00.0,31.1,24.0,13.1,-000.3,0009.86,0007.21,0006.91
2023-03-07 23:57:00,,0825.6,5.00,0.00,22.3,20.6,00.0,31.1,24.0,13.2,-000.3,0009.71,0007.31,0006.98
2023-03-07 23:58:00,,0825.6,4.99,0.00,22.3,20.5,00.0,31.1,24.0,13.3,-000.3,0009.77,0007.36,0007.03
2023-03-07 23:59:00,,0825.6,5.00,0.00,22.3,20.5,00.0,31.1,24.0,13.3,-000.5,0009.80,0007.39,0007.07
